Regional Weather Roundup
Issued by NWS Kansas City/Pleasant Hill, MO

Home | Current Version | Previous Version | Graphics & Text | Print | Product List | Glossary Off
Versions: 1 2 3 4 5 6 7 8 9 10 11 12 13 14 15 16 17 18 19 20 21 22 23 24 25 26 27 28 29 30 31 32 33 34 35 36 37 38 39 40 41 42 43 44 45 46 47 48 49 50

000
ASUS43 KEAX 291810
RWREAX

WEATHER ROUNDUP FOR EASTERN KANSAS AND NORTHWEST MISSOURI
NATIONAL WEATHER SERVICE KANSAS CITY/PLEASANT HILL MO
100 PM CDT SUN MAR 29 2015

KSZ040-057-103>105-MOZ028-029-037-043-291900-
...KANSAS CITY METROPOLITAN AREA...

CITY           SKY/WX    TMP DP  RH WIND       PRES   REMARKS
K.C. INTL      CLOUDY    61  44  53 W10       29.99S
6HR MIN TEMP:  40; 6HR MAX TEMP:  61; 6HR PCP: TRACE;

K.C. DOWNTOWN  CLOUDY    59  42  53 SW8       29.99F
6HR MIN TEMP:  41; 6HR MAX TEMP:  59; 6HR PCP: TRACE;

LEES SUMMIT    CLOUDY    55  41  59 SW14      30.00
6HR MIN TEMP:  37; 6HR MAX TEMP:  55;

OLATHE - IXD   CLOUDY    57  43  59 SW10      30.01S
6HR MIN TEMP:  40; 6HR MAX TEMP:  58;

OLATHE - OJC   CLOUDY    56  43  61 W10       30.00S
6HR MIN TEMP:  39; 6HR MAX TEMP:  57; 6HR PCP: TRACE;

LAWRENCE       PTSUNNY   64  44  48 W9        30.00S

$$

MOZ001>008-011>017-020>025-030>033-038>040-044>046-053-054-291900-
...NORTHERN AND CENTRAL MISSOURI...

CITY           SKY/WX    TMP DP  RH WIND       PRES   REMARKS
ST. JOSEPH     PTSUNNY   62  41  46 NW21      29.98R
6HR MIN TEMP:  42; 6HR MAX TEMP:  63; 6HR PCP: TRACE;

MOSBY            N/A     59  43  55 W9        29.98F
WARRENSBURG    CLOUDY    50  37  62 SW16G22   30.02R
WHITEMAN AFB   CLOUDY    50  38  62 W12       29.99F
6HR MIN TEMP:  38; 6HR MAX TEMP:  52; 6HR PCP: TRACE;

CLINTON        PTSUNNY   54  39  58 SW15      30.03S
SEDALIA        PTSUNNY   53  37  54 SW13G21   30.00F
6HR MIN TEMP:  39; 6HR MAX TEMP:  54; 6HR PCP:  0.01;

WARSAW         NOT AVBL
MARSHALL       MOSUNNY   55  43  62 SW10G22   29.99F
CHILLICOTHE      N/A     55  41  59 SW9G22    29.97S
6HR MIN TEMP:  39; 6HR MAX TEMP:  55; 6HR PCP:  0.01;

MOBERLY        PTSUNNY   54  36  50 W17G25    29.98F
KIRKSVILLE     CLOUDY    51  39  63 SW15G24   29.94F
6HR MIN TEMP:  37; 6HR MAX TEMP:  52; 6HR PCP:  0.01;


$$

MOZ041-047>049-056>058-063>065-088>090-097-291900-
...EASTERN AND SOUTHERN MISSOURI...

CITY           SKY/WX    TMP DP  RH WIND       PRES   REMARKS
ST. LOUIS INTL PTSUNNY   58  29  33 S20G32    29.97F
6HR MIN TEMP:  36; 6HR MAX TEMP:  58;

SPIRIT OF STL  PTSUNNY   56  30  37 S12G21    29.96F
COLUMBIA       PTSUNNY   55  35  47 SW15      30.00R
JEFFERSON CITY PTSUNNY   55  33  43 SW10      29.99S
MEXICO         PTSUNNY   55  41  58 SW18G25   29.98S
HANNIBAL       MOSUNNY   54  30  40 SW17G24   29.95F
ROLLA          MOSUNNY   57  36  45 S20       29.97F
LEBANON        MOSUNNY   59  36  41 SW9       30.02F
OSAGE BEACH    MOSUNNY   57  36  44 SW14      30.01S
SPRINGFIELD    PTSUNNY   57  37  47 S14       30.02S
BRANSON        PTSUNNY   61  39  44 SE6       30.04F
NEVADA         PTSUNNY   54  41  62 W10       30.04S
JOPLIN         PTSUNNY   62  42  47 SW14      30.02F
WEST PLAINS    MOSUNNY   50  37  61 S12       30.08F

$$

IAZ060-094-KSZ022-034>040-054-083-096-NEZ052-066-093-291900-
...KANSAS...SOUTHEAST NEBRASKA AND IOWA...

CITY           SKY/WX    TMP DP  RH WIND       PRES   REMARKS
TOPEKA         PTSUNNY   65  40  39 W13       30.01S
6HR MIN TEMP:  44; 6HR MAX TEMP:  65;

EMPORIA        MOSUNNY   68  40  35 N17G25    30.01F
CHANUTE        CLOUDY    54  41  61 SW7       30.04R
WICHITA        PTSUNNY   74  39  28 N16G28    30.04S
OMAHA          CLOUDY    54  40  59 NW30G41   30.00R
LINCOLN        CLOUDY    57  38  48 NW31G39   30.06R
FALLS CITY     PTSUNNY   65  38  36 NW26G41   29.98R
LAMONI         MOSUNNY   60  41  49 W20       29.92S
DES MOINES     CLOUDY    59  38  45 W25G33    29.86F

$$




USA.gov is the U.S. government's official web portal to all federal, state and local government web resources and services.